Add date Part number Description Manufacture PDF
12-22-2013 PCA1292A PCA1292A 9939 Via Pasar • San Die Z-Communications PCA1292A datasheet
12-22-2013 PCA1127A PCA1127A 9939 Via Pasar • San Die Z-Communications PCA1127A datasheet
12-22-2013 35N15E MOTOROLA SEMICONDUCTOR TECHNICAL D Motorola 35N15E datasheet
12-22-2013 UPD16635 DATA SHEET MOS INTEGRATED CIRCUIT NEC UPD16635 datasheet
12-22-2013 DD400S45KL3_B5 TechnischeInformation/Technical Infineon DD400S45KL3_B5 datasheet
12-22-2013 DD435N N Netz-Dioden-Modul Rectifier Diode eupec DD435N datasheet
12-22-2013 UPA672T To our customers, Old Company Name Renesas UPA672T datasheet
12-22-2013 UPA677TB To our customers, Old Company Name Renesas UPA677TB datasheet
12-22-2013 SD6832 Silan Microelectronics SD6832_Data SL SD6832 datasheet
12-22-2013 ATC260x ATC260x Datasheet Latest Version: 1 Actions ATC260x datasheet
12-22-2013 ATC2605 ATC260x Datasheet Latest Version: 1 Actions ATC2605 datasheet
12-22-2013 ATC2603 ATC260x Datasheet Latest Version: 1 Actions ATC2603 datasheet
12-22-2013 LXM1617-05-4x PanelMatch™ I N T E G R A T E D P Microsemi LXM1617-05-4x datasheet
12-22-2013 LXM1617-03-2x PanelMatch™ I N T E G R A T E D P Microsemi LXM1617-03-2x datasheet
12-22-2013 LXM1617-05-2x PanelMatch™ I N T E G R A T E D P Microsemi LXM1617-05-2x datasheet
12-22-2013 LXM1617-05-6x PanelMatch™ I N T E G R A T E D P Microsemi LXM1617-05-6x datasheet
12-22-2013 LXM1617-12-4x PanelMatch™ I N T E G R A T E D P Microsemi LXM1617-12-4x datasheet
12-22-2013 LXM1617-12-6x PanelMatch™ I N T E G R A T E D P Microsemi LXM1617-12-6x datasheet
12-22-2013 HMJE13007A HI-SINCERITY MICROELECTRONICS CORP. Hi-Sincerity HMJE13007A datasheet
12-22-2013 AED9101B Operating manual Digital Transduce HBM AED9101B datasheet
12-22-2013 AD103B Operating instructions Digital Tra HBM AD103B datasheet
12-22-2013 HYMP112P72CP8L-C4 240pin DDR2 VLP Registerd DIMMs bas Hynix Semiconductor HYMP112P72CP8L-C4 datasheet
12-22-2013 HYMP112P72CP8L-Y5 240pin DDR2 VLP Registerd DIMMs bas Hynix Semiconductor HYMP112P72CP8L-Y5 datasheet
12-22-2013 HYMP112P72CP8L-S6 240pin DDR2 VLP Registerd DIMMs bas Hynix Semiconductor HYMP112P72CP8L-S6 datasheet
12-22-2013 HYMP125P72CP4L-C4 240pin DDR2 VLP Registerd DIMMs bas Hynix Semiconductor HYMP125P72CP4L-C4 datasheet
12-22-2013 HYMP125P72CP4L-Y5 240pin DDR2 VLP Registerd DIMMs bas Hynix Semiconductor HYMP125P72CP4L-Y5 datasheet
12-22-2013 HYMP125P72CP4L-S6 240pin DDR2 VLP Registerd DIMMs bas Hynix Semiconductor HYMP125P72CP4L-S6 datasheet
12-22-2013 HYMP351P72CMP4L-C4 240pin DDR2 VLP Registerd DIMMs bas Hynix Semiconductor HYMP351P72CMP4L-C4 datasheet
12-22-2013 HYMP351P72CMP4L-Y5 240pin DDR2 VLP Registerd DIMMs bas Hynix Semiconductor HYMP351P72CMP4L-Y5 datasheet
12-22-2013 HYMP351P72CMP4L-S6 240pin DDR2 VLP Registerd DIMMs bas Hynix Semiconductor HYMP351P72CMP4L-S6 datasheet
12-22-2013 HYMP41GP72CNP4L-C4 240pin DDR2 VLP Registerd DIMMs bas Hynix Semiconductor HYMP41GP72CNP4L-C4 datasheet
12-22-2013 HYMP41GP72CNP4L-Y5 240pin DDR2 VLP Registerd DIMMs bas Hynix Semiconductor HYMP41GP72CNP4L-Y5 datasheet
12-22-2013 APA0714 APA0714 3W Mono Fully Differential ANPEC APA0714 datasheet
12-22-2013 APA0713 APA0713 1.1W Mono Low-Voltage Audio ANPEC APA0713 datasheet
12-22-2013 APA2020 APA2020 Stereo 2-W Audio Power Ampl ANPEC APA2020 datasheet
12-22-2013 APA2010B APA2010B 3W Mono Class-D Audio Powe ANPEC APA2010B datasheet
12-22-2013 APA2012 APA2012 3W Mono Class-D Audio Power ANPEC APA2012 datasheet
12-22-2013 APA2011 APA2011/2011A 2.8W Mono Class D Aud ANPEC APA2011 datasheet
12-22-2013 APA2011A APA2011/2011A 2.8W Mono Class D Aud ANPEC APA2011A datasheet
12-22-2013 APA2061 APA2061 2.4W Stereo Fully Different ANPEC APA2061 datasheet
12-22-2013 APA2060 APA2060 2.4W Stereo Fully Different ANPEC APA2060 datasheet
12-22-2013 APA2058 APA2058 2.4W Stereo Fully Different ANPEC APA2058 datasheet
12-22-2013 APA2051 APA2051 2.4W Stereo Audio Power Amp ANPEC APA2051 datasheet
12-22-2013 APA2037 APA2037 3W Stereo Fully Differentia ANPEC APA2037 datasheet
12-22-2013 APA2036 APA2036/APA2036A Stereo 2.6W Audio ANPEC APA2036 datasheet
12-22-2013 APA2036A APA2036/APA2036A Stereo 2.6W Audio ANPEC APA2036A datasheet
12-22-2013 APA2071 APA2071 Stereo 3.1W Non-inverting A ANPEC APA2071 datasheet
12-22-2013 APA2070 APA2070 Stereo 2.6W Audio Power Amp ANPEC APA2070 datasheet
12-22-2013 APA2615 APA2615 Mono/Stereo High-Power Clas ANPEC APA2615 datasheet
12-22-2013 APA2614 APA2614 15W Stereo Class-D Audio Po ANPEC APA2614 datasheet
12-22-2013 APA2613A APA2613A 8W Stereo Class-D Audio Po ANPEC APA2613A datasheet
12-22-2013 APA2613 APA2613 6W Stereo Class-D Audio Pow ANPEC APA2613 datasheet
12-22-2013 APA2607 APA2607 6W Stereo Class-D Audio Pow ANPEC APA2607 datasheet
12-22-2013 APA2606 APA2606 2.8W Stereo Class-D Audio P ANPEC APA2606 datasheet
12-22-2013 APA2605 APA2605 2.8W Stereo Class-D Audio P ANPEC APA2605 datasheet
12-22-2013 APA2603B APA2603B 2.5W Stereo Class-D Audio ANPEC APA2603B datasheet
12-22-2013 APA2603A APA2603A 2.8W Stereo Class-D Audio ANPEC APA2603A datasheet
12-22-2013 APA2603 APA2603 3W Stereo Class D Audio Pow ANPEC APA2603 datasheet
12-22-2013 APA2600 APA2600 2.8W Stereo Class-D Audio P ANPEC APA2600 datasheet
12-22-2013 APA3002 APA3002 12W Stereo Class-D Audio Po ANPEC APA3002 datasheet
12-22-2013 APA3541 APA3541/4 Class AB Stereo Headphone ANPEC APA3541 datasheet
12-22-2013 APA3544 APA3541/4 Class AB Stereo Headphone ANPEC APA3544 datasheet
12-22-2013 APA3169 APA3169 20W Stereo Digital Class-D ANPEC APA3169 datasheet
12-22-2013 APA3163A APA3163A 20W Stereo Digital Class-D ANPEC APA3163A datasheet
12-22-2013 APA3163 APA3163 20W Stereo Digital Class-D ANPEC APA3163 datasheet
12-22-2013 APA3160A APA3160A 20W Stereo Digital Class-D ANPEC APA3160A datasheet
12-22-2013 APA3160 APA3160 20W Stereo Digital Class-D ANPEC APA3160 datasheet
12-22-2013 APL3205B APL3205A/B Li+ Charger Protection I ANPEC APL3205B datasheet
12-22-2013 APL3205A APL3205A/B Li+ Charger Protection I ANPEC APL3205A datasheet
12-22-2013 APL3204A APL3204A/B Li+ Charger Protection I ANPEC APL3204A datasheet
12-22-2013 APL3203D APL3203D Li+ Charger Protection IC ANPEC APL3203D datasheet
12-22-2013 APL3203C APL3203A/B/C Li+ Charger Protection ANPEC APL3203C datasheet
12-22-2013 APL3203A APL3203A/B/C Li+ Charger Protection ANPEC APL3203A datasheet
12-22-2013 APL3203B APL3203A/B/C Li+ Charger Protection ANPEC APL3203B datasheet
12-22-2013 APL3202 APL3202 Li+ Battery Charger with Th ANPEC APL3202 datasheet
12-22-2013 APL3201 APL3201 Li+ Battery Charger with Th ANPEC APL3201 datasheet
12-22-2013 APL3200 APL3200 Dual-Input, USB/AC Adapter, ANPEC APL3200 datasheet
12-22-2013 APW8727 APW8727/L Synchronous single PWM Co ANPEC APW8727 datasheet
12-22-2013 APW8727L APW8727/L Synchronous single PWM Co ANPEC APW8727L datasheet
12-22-2013 APW8726 APW8726 5V to 12V Single Buck Volta ANPEC APW8726 datasheet
12-22-2013 APW8725A APW8725A 5V to 12V Synchronous Buck ANPEC APW8725A datasheet
12-22-2013 APW8724 APW8724 Common single PWM Controlle ANPEC APW8724 datasheet
12-22-2013 APW8723 APW8723 5V to 12V Single Buck Volta ANPEC APW8723 datasheet
12-22-2013 APW8722D APW8722/A/B/C/D 5V to 12V Single Bu ANPEC APW8722D datasheet
12-22-2013 APW8722A APW8722/A/B/C/D 5V to 12V Single Bu ANPEC APW8722A datasheet
12-22-2013 APW8722B APW8722/A/B/C/D 5V to 12V Single Bu ANPEC APW8722B datasheet
12-22-2013 APW8722C APW8722/A/B/C/D 5V to 12V Single Bu ANPEC APW8722C datasheet
12-22-2013 APW8722 APW8722/A/B/C/D 5V to 12V Single Bu ANPEC APW8722 datasheet
12-22-2013 APW8720B APW8720B Single Buck Voltage Mode P ANPEC APW8720B datasheet
12-22-2013 APW8713 APW8713 High Input Voltage 8A PWM C ANPEC APW8713 datasheet
12-22-2013 APW8700 APW8700 Dual-Phase Synchronous-Rect ANPEC APW8700 datasheet
12-22-2013 APW8802 APW8802 High Input Voltage 8A PWM D ANPEC APW8802 datasheet
12-22-2013 APW8813 APW8813/A DDR2 And DDR3 Power Solut ANPEC APW8813 datasheet
12-22-2013 APW8813A APW8813/A DDR2 And DDR3 Power Solut ANPEC APW8813A datasheet
12-22-2013 APW8819 APW8819 DDR TOTAL POWER SOLUTION SY ANPEC APW8819 datasheet
12-22-2013 APW8816 APW8816 Single Buck PWM Controller ANPEC APW8816 datasheet
12-22-2013 APW8728 APW8728 VGA PWM Controller with Dif ANPEC APW8728 datasheet
12-22-2013 APW8815 APW8815 High-Performance Notebook P ANPEC APW8815 datasheet
12-22-2013 APW8811 APW8811 System Power PWM Controller ANPEC APW8811 datasheet
12-22-2013 APW8814 APW8814 High-Performance Notebook P ANPEC APW8814 datasheet
12-22-2013 APW8812 APW8812 System Power PWM Controller ANPEC APW8812 datasheet
12-22-2013 APW8805A APW8805A 3A 5V 1MHz Synchronous Buc ANPEC APW8805A datasheet
12-22-2013 APW8804 APW8804 3A 5V 1MHz Synchronous Buck ANPEC APW8804 datasheet
12-22-2013 APW8835 APW8835 24V, 3A DC-DC Synchronous B ANPEC APW8835 datasheet
12-22-2013 APW8824 APW8824 1.5MHz, 1A Synchronous Buck ANPEC APW8824 datasheet
12-22-2013 APW8822 APW8822/A/B/C System Power PWM Cont ANPEC APW8822 datasheet
12-22-2013 APW8822A APW8822/A/B/C System Power PWM Cont ANPEC APW8822A datasheet
12-22-2013 APW8822B APW8822/A/B/C System Power PWM Cont ANPEC APW8822B datasheet
12-22-2013 APW8822C APW8822/A/B/C System Power PWM Cont ANPEC APW8822C datasheet
12-22-2013 APW8821 APW8821 Notebook PWM Controller wit ANPEC APW8821 datasheet
12-22-2013 APW8820 APW8820 System Power PWM Controller ANPEC APW8820 datasheet
12-22-2013 APL3212A APL3212A/B/C Li+ Charger Protection ANPEC APL3212A datasheet
12-22-2013 APL3212B APL3212A/B/C Li+ Charger Protection ANPEC APL3212B datasheet
12-22-2013 APL3212C APL3212A/B/C Li+ Charger Protection ANPEC APL3212C datasheet
12-22-2013 APL3208A APL3208A/B/C Li+ Charger Protection ANPEC APL3208A datasheet
12-22-2013 APL3208B APL3208A/B/C Li+ Charger Protection ANPEC APL3208B datasheet
12-22-2013 APL3208C APL3208A/B/C Li+ Charger Protection ANPEC APL3208C datasheet
12-22-2013 APL3206 APL3206/A/B Li+ Charger Protection ANPEC APL3206 datasheet
12-22-2013 APL3206A APL3206/A/B Li+ Charger Protection ANPEC APL3206A datasheet
12-22-2013 APL3206B APL3206/A/B Li+ Charger Protection ANPEC APL3206B datasheet
12-22-2013 APL3207 APL3207 Li+ Battery Charger and Low ANPEC APL3207 datasheet
12-22-2013 APL3510 APL3510/1 USB Power-Distribution Sw ANPEC APL3510 datasheet
12-22-2013 APL3511 APL3510/1 USB Power-Distribution Sw ANPEC APL3511 datasheet
12-22-2013 APL3225 APL3225 Li+ Charger Protection IC ANPEC APL3225 datasheet
12-22-2013 APL3218 APL3218 Li+ Charger Protection IC ANPEC APL3218 datasheet
12-22-2013 APL3216 APL3216 Li+ Charger Protection IC ANPEC APL3216 datasheet
12-22-2013 APL3215 APL3215/A Li+ Charger Protection IC ANPEC APL3215 datasheet
12-22-2013 APL3215A APL3215/A Li+ Charger Protection IC ANPEC APL3215A datasheet
12-22-2013 APL3213 APL3213/A Li+ Charger Protection IC ANPEC APL3213 datasheet
12-22-2013 APL3213A APL3213/A Li+ Charger Protection IC ANPEC APL3213A datasheet
12-22-2013 APL3518 APL3518/9 USB Power-Distribution Sw ANPEC APL3518 datasheet
12-22-2013 APL3519 APL3518/9 USB Power-Distribution Sw ANPEC APL3519 datasheet
12-22-2013 APL3517 APL3517/A/B Compact, Small Package ANPEC APL3517 datasheet
12-22-2013 APL3517A APL3517/A/B Compact, Small Package ANPEC APL3517A datasheet
12-22-2013 APL3517B APL3517/A/B Compact, Small Package ANPEC APL3517B datasheet
12-22-2013 APL3516 APL3516 Power-Distribution Switches ANPEC APL3516 datasheet
12-22-2013 APL3512 APL3512 Power-Distribution Switches ANPEC APL3512 datasheet
12-22-2013 APL3514 APL3514 Power-Distribution Switches ANPEC APL3514 datasheet
12-22-2013 APL3513 APL3513 2A High Side Load Switches ANPEC APL3513 datasheet
12-22-2013 APL3580 APL3580 33mΩ 3A High Side Load Sw ANPEC APL3580 datasheet
12-22-2013 APL3546A APL3546A Power -Distribution Switch ANPEC APL3546A datasheet
12-22-2013 APL3546 APL3546 Power -Distribution Switche ANPEC APL3546 datasheet
12-22-2013 APL3540 APL3540 High-Side Power Distributio ANPEC APL3540 datasheet
12-22-2013 APL3534 APL3534/A/B Compact, Small Package ANPEC APL3534 datasheet
12-22-2013 APL3534A APL3534/A/B Compact, Small Package ANPEC APL3534A datasheet
12-22-2013 APL3534B APL3534/A/B Compact, Small Package ANPEC APL3534B datasheet
12-22-2013 APL3533 APL3533 Ultra-Low On-Resistance, 6A ANPEC APL3533 datasheet
12-22-2013 APL3526 APL3526/B Ultra-Low On-Resistance, ANPEC APL3526 datasheet
12-22-2013 APL3526B APL3526/B Ultra-Low On-Resistance, ANPEC APL3526B datasheet
12-22-2013 APL3523A APL3523A Ultra-Low On-Resistance, 6 ANPEC APL3523A datasheet
12-22-2013 APL3523 APL3523 Ultra-Low On-Resistance, 6A ANPEC APL3523 datasheet
12-22-2013 APL3521 APL3521 Power-Distribution Switches ANPEC APL3521 datasheet
12-22-2013 APL3520A APL3520A/B/C/D USB Dual Power-Distr ANPEC APL3520A datasheet
12-22-2013 APL3520B APL3520A/B/C/D USB Dual Power-Distr ANPEC APL3520B datasheet
12-22-2013 APL3520C APL3520A/B/C/D USB Dual Power-Distr ANPEC APL3520C datasheet
12-22-2013 APL3520D APL3520A/B/C/D USB Dual Power-Distr ANPEC APL3520D datasheet
12-22-2013 EEETG1A101P Aluminum Electrolytic Capacitors/ T Panasonic EEETG1A101P datasheet
12-22-2013 EEETG1A221UP Aluminum Electrolytic Capacitors/ T Panasonic EEETG1A221UP datasheet
12-22-2013 EEETG1A221P Aluminum Electrolytic Capacitors/ T Panasonic EEETG1A221P datasheet
12-22-2013 EEETG1A331UP Aluminum Electrolytic Capacitors/ T Panasonic EEETG1A331UP datasheet
12-22-2013 EEETG1A331P Aluminum Electrolytic Capacitors/ T Panasonic EEETG1A331P datasheet
12-22-2013 EEETG1A471UP Aluminum Electrolytic Capacitors/ T Panasonic EEETG1A471UP datasheet
12-22-2013 EEVTG1A102Q Aluminum Electrolytic Capacitors/ T Panasonic EEVTG1A102Q datasheet
12-22-2013 EEVTG1A152UQ Aluminum Electrolytic Capacitors/ T Panasonic EEVTG1A152UQ datasheet
12-22-2013 EEVTG1A222M Aluminum Electrolytic Capacitors/ T Panasonic EEVTG1A222M datasheet
12-22-2013 EEVTG1A332UM Aluminum Electrolytic Capacitors/ T Panasonic EEVTG1A332UM datasheet
12-22-2013 EEVTG1A332M Aluminum Electrolytic Capacitors/ T Panasonic EEVTG1A332M datasheet
12-22-2013 EEVTG1A472M Aluminum Electrolytic Capacitors/ T Panasonic EEVTG1A472M datasheet
12-22-2013 EEETG1C101P Aluminum Electrolytic Capacitors/ T Panasonic EEETG1C101P datasheet
12-22-2013 EEETG1C221UP Aluminum Electrolytic Capacitors/ T Panasonic EEETG1C221UP datasheet
12-22-2013 EEETG1C221P Aluminum Electrolytic Capacitors/ T Panasonic EEETG1C221P datasheet
12-22-2013 EEETG1C331UP Aluminum Electrolytic Capacitors/ T Panasonic EEETG1C331UP datasheet
12-22-2013 EEVTG1C331Q Aluminum Electrolytic Capacitors/ T Panasonic EEVTG1C331Q datasheet
12-22-2013 EEVTG1C471Q Aluminum Electrolytic Capacitors/ T Panasonic EEVTG1C471Q datasheet
12-22-2013 EEVTG1C681Q Aluminum Electrolytic Capacitors/ T Panasonic EEVTG1C681Q datasheet
12-22-2013 EEVTG1C102UQ Aluminum Electrolytic Capacitors/ T Panasonic EEVTG1C102UQ datasheet
12-22-2013 EEVTG1C102M Aluminum Electrolytic Capacitors/ T Panasonic EEVTG1C102M datasheet
12-22-2013 EEVTG1C222UM Aluminum Electrolytic Capacitors/ T Panasonic EEVTG1C222UM datasheet
12-22-2013 EEVTG1C222M Aluminum Electrolytic Capacitors/ T Panasonic EEVTG1C222M datasheet
12-22-2013 EEVTG1C332M Aluminum Electrolytic Capacitors/ T Panasonic EEVTG1C332M datasheet
12-22-2013 EEETG1E470P Aluminum Electrolytic Capacitors/ T Panasonic EEETG1E470P datasheet
12-22-2013 EEETG1E101UP Aluminum Electrolytic Capacitors/ T Panasonic EEETG1E101UP datasheet
12-22-2013 EEETG1E101P Aluminum Electrolytic Capacitors/ T Panasonic EEETG1E101P datasheet
12-22-2013 EEETG1E221UP Aluminum Electrolytic Capacitors/ T Panasonic EEETG1E221UP datasheet
12-22-2013 EEETG1E221P Aluminum Electrolytic Capacitors/ T Panasonic EEETG1E221P datasheet
12-22-2013 EEETG1E331UP Aluminum Electrolytic Capacitors/ T Panasonic EEETG1E331UP datasheet
12-22-2013 EEVTG1E331Q Aluminum Electrolytic Capacitors/ T Panasonic EEVTG1E331Q datasheet
12-22-2013 EEVTG1E471Q Aluminum Electrolytic Capacitors/ T Panasonic EEVTG1E471Q datasheet
12-22-2013 EEVTG1E681UQ Aluminum Electrolytic Capacitors/ T Panasonic EEVTG1E681UQ datasheet
12-22-2013 EEVTG1E681M Aluminum Electrolytic Capacitors/ T Panasonic EEVTG1E681M datasheet
12-22-2013 EEVTG1E102UM Aluminum Electrolytic Capacitors/ T Panasonic EEVTG1E102UM datasheet
12-22-2013 EEVTG1E102M Aluminum Electrolytic Capacitors/ T Panasonic EEVTG1E102M datasheet
12-22-2013 EEVTG1E222M Aluminum Electrolytic Capacitors/ T Panasonic EEVTG1E222M datasheet
12-22-2013 EEETG1V330P Aluminum Electrolytic Capacitors/ T Panasonic EEETG1V330P datasheet
12-22-2013 EEETG1V470UP Aluminum Electrolytic Capacitors/ T Panasonic EEETG1V470UP datasheet
12-22-2013 EEETG1V470P Aluminum Electrolytic Capacitors/ T Panasonic EEETG1V470P datasheet
12-22-2013 EEETG1V101UP Aluminum Electrolytic Capacitors/ T Panasonic EEETG1V101UP datasheet
12-22-2013 EEETG1V101P Aluminum Electrolytic Capacitors/ T Panasonic EEETG1V101P datasheet
12-22-2013 EEETG1V221UP Aluminum Electrolytic Capacitors/ T Panasonic EEETG1V221UP datasheet
12-22-2013 EEVTG1V331Q Aluminum Electrolytic Capacitors/ T Panasonic EEVTG1V331Q datasheet
12-22-2013 EEVTG1V471UQ Aluminum Electrolytic Capacitors/ T Panasonic EEVTG1V471UQ datasheet
12-22-2013 EEVTG1V471M Aluminum Electrolytic Capacitors/ T Panasonic EEVTG1V471M datasheet
12-22-2013 EEVTG1V681UM Aluminum Electrolytic Capacitors/ T Panasonic EEVTG1V681UM datasheet
12-22-2013 EEVTG1V681M Aluminum Electrolytic Capacitors/ T Panasonic EEVTG1V681M datasheet
12-22-2013 EEVTG1V102M Aluminum Electrolytic Capacitors/ T Panasonic EEVTG1V102M datasheet
12-22-2013 EEETG1H100P Aluminum Electrolytic Capacitors/ T Panasonic EEETG1H100P datasheet
12-22-2013 EEETG1H220P Aluminum Electrolytic Capacitors/ T Panasonic EEETG1H220P datasheet
12-22-2013 EEETG1H330UP Aluminum Electrolytic Capacitors/ T Panasonic EEETG1H330UP datasheet
12-22-2013 EEETG1H330P Aluminum Electrolytic Capacitors/ T Panasonic EEETG1H330P datasheet
12-22-2013 EEETG1H470UP Aluminum Electrolytic Capacitors/ T Panasonic EEETG1H470UP datasheet
12-22-2013 EEETG1H470P Aluminum Electrolytic Capacitors/ T Panasonic EEETG1H470P datasheet
12-22-2013 EEETG1H101UP Aluminum Electrolytic Capacitors/ T Panasonic EEETG1H101UP datasheet
12-22-2013 EEVTG1H221Q Aluminum Electrolytic Capacitors/ T Panasonic EEVTG1H221Q datasheet
12-22-2013 EEVTG1H331Q Aluminum Electrolytic Capacitors/ T Panasonic EEVTG1H331Q datasheet
12-22-2013 EEVTG1H471M Aluminum Electrolytic Capacitors/ T Panasonic EEVTG1H471M datasheet
12-22-2013 EEVTG1H681UM Aluminum Electrolytic Capacitors/ T Panasonic EEVTG1H681UM datasheet
12-22-2013 EEVTG1H681M Aluminum Electrolytic Capacitors/ T Panasonic EEVTG1H681M datasheet
12-22-2013 EEVTG1H102M Aluminum Electrolytic Capacitors/ T Panasonic EEVTG1H102M datasheet
12-22-2013 EEETG1J100P Aluminum Electrolytic Capacitors/ T Panasonic EEETG1J100P datasheet
12-22-2013 EEETG1J220P Aluminum Electrolytic Capacitors/ T Panasonic EEETG1J220P datasheet
12-22-2013 EEETG1J330UP Aluminum Electrolytic Capacitors/ T Panasonic EEETG1J330UP datasheet
12-22-2013 EEETG1J330P Aluminum Electrolytic Capacitors/ T Panasonic EEETG1J330P datasheet
12-22-2013 EEETG1J470UP Aluminum Electrolytic Capacitors/ T Panasonic EEETG1J470UP datasheet
12-22-2013 EEETG1J470P Aluminum Electrolytic Capacitors/ T Panasonic EEETG1J470P datasheet
12-22-2013 EEETG1J101UP Aluminum Electrolytic Capacitors/ T Panasonic EEETG1J101UP datasheet
12-22-2013 EEVTG1J101Q Aluminum Electrolytic Capacitors/ T Panasonic EEVTG1J101Q datasheet
12-22-2013 EEVTG1J221Q Aluminum Electrolytic Capacitors/ T Panasonic EEVTG1J221Q datasheet
12-22-2013 EEVTG1J331M Aluminum Electrolytic Capacitors/ T Panasonic EEVTG1J331M datasheet
12-22-2013 EEVTG1J471M Aluminum Electrolytic Capacitors/ T Panasonic EEVTG1J471M datasheet
12-22-2013 EEETG1K100P Aluminum Electrolytic Capacitors/ T Panasonic EEETG1K100P datasheet
12-22-2013 EEETG1K220UP Aluminum Electrolytic Capacitors/ T Panasonic EEETG1K220UP datasheet
12-22-2013 EEETG1K220P Aluminum Electrolytic Capacitors/ T Panasonic EEETG1K220P datasheet
12-22-2013 EEETG1K330UP Aluminum Electrolytic Capacitors/ T Panasonic EEETG1K330UP datasheet
12-22-2013 EEETG1K330P Aluminum Electrolytic Capacitors/ T Panasonic EEETG1K330P datasheet
12-22-2013 EEETG1K470UP Aluminum Electrolytic Capacitors/ T Panasonic EEETG1K470UP datasheet
12-22-2013 EEVTG1K470Q Aluminum Electrolytic Capacitors/ T Panasonic EEVTG1K470Q datasheet
12-22-2013 EEVTG1K101UQ Aluminum Electrolytic Capacitors/ T Panasonic EEVTG1K101UQ datasheet
12-22-2013 EEVTG1K101M Aluminum Electrolytic Capacitors/ T Panasonic EEVTG1K101M datasheet
12-22-2013 EEVTG1K221UM Aluminum Electrolytic Capacitors/ T Panasonic EEVTG1K221UM datasheet
12-22-2013 EEVTG1K221M Aluminum Electrolytic Capacitors/ T Panasonic EEVTG1K221M datasheet
12-22-2013 EEVTG1K331UM Aluminum Electrolytic Capacitors/ T Panasonic EEVTG1K331UM datasheet
12-22-2013 EEVTG1K331M Aluminum Electrolytic Capacitors/ T Panasonic EEVTG1K331M datasheet
12-22-2013 EEVTG1K471M Aluminum Electrolytic Capacitors/ T Panasonic EEVTG1K471M datasheet
12-22-2013 EEETG2A100P Aluminum Electrolytic Capacitors/ T Panasonic EEETG2A100P datasheet
12-22-2013 EEETG2A220UP Aluminum Electrolytic Capacitors/ T Panasonic EEETG2A220UP datasheet
12-22-2013 EEETG2A220P Aluminum Electrolytic Capacitors/ T Panasonic EEETG2A220P datasheet
12-22-2013 EEETG2A330P Aluminum Electrolytic Capacitors/ T Panasonic EEETG2A330P datasheet
12-22-2013 EEVTG2A470Q Aluminum Electrolytic Capacitors/ T Panasonic EEVTG2A470Q datasheet
12-22-2013 EEVTG2A101M Aluminum Electrolytic Capacitors/ T Panasonic EEVTG2A101M datasheet
12-22-2013 EEVTG2A221M Aluminum Electrolytic Capacitors/ T Panasonic EEVTG2A221M datasheet
12-22-2013 EEVTG2A331M Aluminum Electrolytic Capacitors/ T Panasonic EEVTG2A331M datasheet
12-22-2013 ISL6146 Low Voltage OR-ing FET Controller I Intersil ISL6146 datasheet
12-22-2013 KTG1205 Free Datasheet www.datasheet Kingstate KTG1205 datasheet
12-22-2013 PS5 13 Amp Plug Style Case PS5 Series F multicomp PS5 datasheet
12-22-2013 PS5B 13 Amp Plug Style Case PS5 Series F multicomp PS5B datasheet
12-22-2013 PS5MEP 13 Amp Plug Style Case PS5 Series F multicomp PS5MEP datasheet
12-22-2013 PS5WMEP 13 Amp Plug Style Case PS5 Series F multicomp PS5WMEP datasheet
12-22-2013 RUR020N02 1.5V Drive Nch MOSFET RUR020N02 zSt Rohm RUR020N02 datasheet
12-22-2013 RUR040N02 RUR040N02 Transistors 1.5V Drive N Rohm RUR040N02 datasheet
12-22-2013 SI4128DY New Product Si4128DY Vishay Silico Vishay SI4128DY datasheet


The site has been moved : DatasheetsPDF.com
Since 2005 - HOME - Link US - All - Privacy Policy & Contact Us -